BGTL

Thule Air Base  Airport

Thule, Greenland
Issued Wind Visibility Ceiling Temperature Dew Point Humidity Rain Barometer
Nov-18
04:14 UTC
240°
3 KTS
10,000+ meters Overcast
4,400' AGL
-16° C
F
-18° C
-0° F
85%   30.47" Hg
1030.8 hPa
VFR
Nov-18
03:43 UTC
250°
4 KTS
10,000+ meters Broken
2,100' AGL
-15° C
F
-17° C
F
85%   30.47" Hg
1030.8 hPa
MVFR
Nov-18
03:28 UTC
250°
4 KTS
10,000+ meters Broken
4,500' AGL
-15° C
F
-17° C
F
85%   30.46" Hg
1030.5 hPa
VFR
Nov-18
02:58 UTC
10,000+ meters Broken
5,000' AGL
-16° C
F
-18° C
-0° F
85%   30.46" Hg
1030.5 hPa
VFR
Nov-18
01:58 UTC
240°
5 KTS
10,000+ meters Overcast
4,500' AGL
-15° C
F
-18° C
-0° F
78%   30.45" Hg
1030.2 hPa
VFR
Nov-18
00:58 UTC
10,000+ meters Overcast
4,800' AGL
-15° C
F
-18° C
-0° F
78%   30.44" Hg
1029.8 hPa
VFR
Nov-17
23:58 UTC
10,000+ meters   -15° C
F
-18° C
-0° F
78%   30.43" Hg
1029.5 hPa
VFR
Nov-17
22:58 UTC
10,000+ meters Broken
3,700' AGL
-16° C
F
-18° C
-0° F
85%   30.42" Hg
1029.1 hPa
VFR
Nov-17
21:58 UTC
10,000+ meters Overcast
3,000' AGL
-16° C
F
-19° C
-2° F
78%   30.41" Hg
1028.8 hPa
MVFR
Nov-17
20:58 UTC
10,000+ meters Overcast
2,700' AGL
-16° C
F
-19° C
-2° F
78% 0.005" 30.4" Hg
1028.5 hPa
MVFR
Nov-17
20:29 UTC
10,000+ meters Overcast
2,800' AGL
-16° C
F
-19° C
-2° F
78%   30.4" Hg
1028.5 hPa
MVFR
Nov-17
20:15 UTC
10,000+ meters Overcast
2,800' AGL
-16° C
F
-19° C
-2° F
78%   30.39" Hg
1028.2 hPa
MVFR
Nov-17
18:58 UTC
130°
4 KTS
10,000+ meters Overcast
3,000' AGL
-16° C
F
-19° C
-2° F
78%   30.37" Hg
1027.5 hPa
MVFR
Nov-17
18:03 UTC
140°
8 KTS
10,000+ meters Overcast
3,000' AGL
-16° C
F
-20° C
-4° F
72%   30.35" Hg
1026.8 hPa
MVFR
Nov-17
17:58 UTC
140°
8 KTS
10,000+ meters Broken
2,900' AGL
-16° C
F
-20° C
-4° F
72%   30.35" Hg
1026.8 hPa
MVFR
Nov-17
17:18 UTC
120°
8 KTS
10,000+ meters Broken
2,800' AGL
-15° C
F
-20° C
-4° F
66%   30.34" Hg
1026.5 hPa
MVFR
Nov-17
17:13 UTC
140°
8 KTS
10,000+ meters Overcast
6,500' AGL
-15° C
F
-20° C
-4° F
66%   30.34" Hg
1026.5 hPa
VFR
Nov-17
16:58 UTC
140°
10 KTS
10,000+ meters Broken
2,800' AGL
-15° C
F
-20° C
-4° F
66%   30.33" Hg
1026.2 hPa
MVFR
Nov-17
16:43 UTC
120°
6 KTS
10,000+ meters Broken
2,800' AGL
-15° C
F
-20° C
-4° F
66%   30.33" Hg
1026.2 hPa
MVFR
Nov-17
15:58 UTC
080°
6 KTS
10,000+ meters Broken
7,000' AGL
-15° C
F
-20° C
-4° F
66%   30.32" Hg
1025.8 hPa
VFR
Nov-17
14:58 UTC
10,000+ meters Overcast
3,400' AGL
-17° C
F
-21° C
-6° F
71%   30.3" Hg
1025.2 hPa
VFR
Nov-17
13:58 UTC
180°
3 KTS
10,000+ meters Overcast
3,200' AGL
-17° C
F
-21° C
-6° F
71%   30.28" Hg
1024.5 hPa
VFR
Nov-17
12:58 UTC
10,000+ meters   -16° C
F
-21° C
-6° F
66%   30.26" Hg
1023.8 hPa
VFR
Nov-17
11:58 UTC
180°
5 KTS
10,000+ meters Broken
3,400' AGL
-17° C
F
-22° C
-8° F
65%   30.25" Hg
1023.5 hPa
VFR
Nov-17
10:58 UTC
10,000+ meters Broken
3,200' AGL
-17° C
F
-22° C
-8° F
65%   30.24" Hg
1023.2 hPa
VFR
Nov-17
10:43 UTC
090°
4 KTS
10,000+ meters Broken
3,000' AGL
-18° C
F
-23° C
-9° F
65%   30.23" Hg
1022.8 hPa
MVFR
Nov-17
10:23 UTC
110°
3 KTS
10,000+ meters Overcast
2,900' AGL
-18° C
F
-23° C
-9° F
65%   30.22" Hg
1022.5 hPa
MVFR
Nov-17
09:58 UTC
10,000+ meters Overcast
3,000' AGL
-17° C
F
-23° C
-9° F
60%   30.22" Hg
1022.5 hPa
MVFR
Nov-17
08:58 UTC
140°
7 KTS
10,000+ meters Overcast
3,000' AGL
-18° C
F
-23° C
-9° F
65%   30.2" Hg
1021.9 hPa
MVFR
Nov-17
07:58 UTC
10,000+ meters Broken
3,200' AGL
-18° C
F
-23° C
-9° F
65%   30.18" Hg
1021.2 hPa
VFR
Nov-17
06:58 UTC
090°
4 KTS
10,000+ meters Overcast
3,400' AGL
-19° C
-2° F
-23° C
-9° F
71%   30.16" Hg
1021 hPa
VFR
Nov-17
05:58 UTC
10,000+ meters Overcast
3,100' AGL
-20° C
-4° F
-24° C
-11° F
71%   30.14" Hg
1021 hPa
VFR
Nov-17
04:58 UTC
090°
6 KTS
10,000+ meters Overcast
3,000' AGL
-22° C
-8° F
-26° C
-15° F
70%   30.13" Hg
1020 hPa
MVFR